{"data":{"norad_id":67085,"epoch":"2026-09-20T22:24:19.012896Z","epoch_age_seconds":40747,"freshness":"FRESH","line1":"1 67085U 25298L   26263.93355339  .00001581  00000+0  14024-3 0  9999","line2":"2 67085  70.0011 242.1567 0003236 262.9235  97.1556 14.98336533 42461","mean_motion":14.98336533,"eccentricity":0.0003236,"inclination_deg":70.0011,"raan_deg":242.1567,"arg_perigee_deg":262.9235,"mean_anomaly_deg":97.1556,"bstar":0.00014024,"rev_number":4246,"period_min":96.106580082967,"perigee_km":569.78661237231,"apogee_km":574.28476413615,"semimajor_km":6950.1726882542,"source":"CELESTRAK","updated_at":"2026-09-21T09:00:36.099342Z"}}